Location: Overspoor
(51.4747°N, 5.6641°E)
Time: 21:52:39
(UTC+02:00)

YUBILEINY - Pass Details

Date: 02 July 2022
Orbit: 1478 x 1509 km, 82.5° (Epoch: 08 August)

Event Time Altitude Azimuth Distance (km) Brightness Sun altitude
Rises 03:05:45 0° 346° (NNW) 4,659 ? -13.2°
Reaches altitude 10° 03:10:07 10° 5° (N) 3,670 ? -13.0°
Maximum altitude 03:15:40 18° 45° (NE) 3,093 ? -12.7°
Drops below altitude 10° 03:21:10 10° 85° (E) 3,647 ? -12.3°
Sets 03:25:26 0° 104° (ESE) 4,617 ? -12.1°
